STARLINK-32598, 62046

Orbit data source: Space-Track

STARLINK-32598, 62046 is a payload satellite owned by SpaceX/Seattle (US) in LEO that was launched on Thu, 21 Nov 2024 UTC via an FALCON 9 launch vehicle from the Air Force Eastern Test Range (AFETR). Payload-class satellites include a variety of spacecraft equipped with specific instruments for various scientific and technological missions. These include communications satellites like Starlink; space stations such as the ISS; scientific satellites like the Hubble; Earth observation satellites from companies like Planet Labs, Umbra, and HawkEye 360; GPS; miniature CubeSats for education and research; and military/defense satellites.

Loading next visibility...
Identifier
62046, 2024-216Q
Orbit
LEO
Country
Flag of USUS
Related business
Manufacturer
SpaceX/Seattle
Mission
Operational Commercial Communications
Bus & Motor
STARLINK V2M, Unknown motor
Mass
730 kg wet, ~700 kg dry
Launch date (UTC)
2024-11-21 (10 months ago)
Launch vehicle
FALCON 9
Launch site
Air Force Eastern Test Range (AFETR)
Object type
Payload
Rocket body
Debris
Shape & HBR
Box + 2 Pan, 14.5 m
Radar Cross Section
36.964 m², Large (>1 m²)

Expand to show TLE details & history
Last TLE update: 21 hours ago

TLE from 21 hours ago
0 STARLINK-32598
1 62046U 24216Q   25260.10482085  .00031309  00000-0  11434-2 0  9997
2 62046  42.9988 156.1607 0000940 253.3645 106.7104 15.27552919 47339
Epoch: 2025-09-17T02:30Z
TLE epoch observation values (Epoch: 2025-09-17T02:30:56.521Z)
Latitude
0.00002°
Longitude
122.13967°
Altitude
483.091 km
Speed
7.626 km/s
True Right ascension
10h 24m 38s
True Declination
0° 00' 00"
Sunlit
Object was in daylight at epoch
Visualization orbit readout
Latitude
Unknown
Longitude
Unknown
Altitude
Unknown
Speed
Unknown
Apparent Right ascension
Unknown
Apparent Declination
Unknown
Sunlit
N/A
Visualization observer readout
Local Sidereal Time
16:19:51
Azimuth
Unknown
Elevation
Unknown
Doppler factor
Unknown
Orbital elements
Apogee altitude
485.721 km
Perigee altitude
484.43 km
Semi-major axis
6,863.213 km
Eccentricity
0.00009
Inclination
42.9988°
RAAN
156.1607°
Arg. of periapsis
253.3645°
True anomaly
106.72072°
Mean anomaly
106.7104°
Eccentric anomaly
106.71556°
Mean motion
3.81726 °/min
Orbital period
94.31 mins
BSTAR
0.0011434
Loading maneuver chart data...
Computing Atmospheric mass density...
Loading historical data...
Loading historical data...
Loading historical data...
Loading historical data...
Loading historical data...
Loading historical data...
Loading historical data...

Documentation

Showing up to 5 results
|